Vorticity
nan nan nan nan nan nan nan nan nan nan nan nan nan nan nan nan nan nan nan nan nan nan nan nan nan nan nan
nan 8 7 8 8 7 8 9 8 7 7 11 8 6 8 9 9 10 10 10 10 10 9 9 9 9 nan
nan 8 8 8 10 9 10 9 8 9 12 10 3 5 8 10 11 10 9 10 9 8 8 10 12 10 nan
nan 10 9 10 9 8 9 7 9 13 12 7 7 10 11 10 10 8 9 8 9 11 12 11 9 7 nan
nan 9 9 8 7 9 8 9 12 11 8 9 11 13 12 11 8 4 7 10 11 12 12 10 6 6 nan
nan 11 9 8 7 7 9 11 13 6 5 12 12 10 11 9 5 8 12 13 10 9 9 9 9 7 nan
nan 10 9 7 9 9 9 9 7 7 12 13 11 8 8 6 9 16 14 6 5 10 11 7 7 12 nan
nan 11 10 11 12 9 10 11 13 12 13 10 7 8 9 11 13 12 6 5 8 8 6 7 12 12 nan
nan 10 9 10 11 12 10 11 14 11 12 10 6 11 14 13 9 2 6 9 10 7 6 12 13 17 nan
nan 7 6 7 7 11 10 10 10 10 6 7 10 11 13 11 6 8 9 9 13 10 11 13 15 16 nan
nan 8 8 8 9 10 10 10 9 6 2 8 10 10 9 5 7 10 9 12 12 12 12 10 11 11 nan
nan 9 9 9 9 9 11 11 9 7 9 11 10 8 8 8 9 8 9 12 10 12 11 9 11 13 nan
nan 10 9 9 10 11 11 12 12 14 14 11 8 9 10 9 9 6 9 11 11 10 9 11 13 14 nan
nan 9 10 9 10 10 10 10 13 16 14 10 9 8 10 10 10 9 11 9 10 9 10 10 11 12 nan
nan 9 9 10 10 9 10 10 10 9 10 13 13 13 12 11 10 11 9 10 10 9 9 10 12 13 nan
nan 10 9 9 10 10 10 9 9 10 10 9 10 13 16 23 12 3 9 9 9 11 12 10 10 11 nan
nan nan nan nan nan nan nan nan nan nan nan nan nan nan nan nan nan nan nan nan nan nan nan nan nan nan nan
CAPE
3 2 1 0 0 0 0 0 0 0 0 0 0 1 0 0 0 0 0 0 1 2 2 2 1 3 4
2 5 0 0 0 0 0 0 0 0 0 0 0 0 0 0 0 1 2 3 4 4 3 3 6 10 9
1 1 0 0 0 0 0 0 0 0 0 0 0 0 0 0 1 3 2 2 4 5 5 4 7 14 11
0 0 0 0 0 0 0 0 0 0 0 0 0 0 0 0 0 0 0 2 6 6 7 16 13 10 12
0 0 0 0 0 0 0 0 0 0 0 0 0 0 0 0 0 0 2 3 4 6 26 20 13 10 11
0 0 0 0 0 0 0 0 0 0 0 0 0 0 0 0 0 1 4 2 22 6 3 4 6 5 6
0 0 0 0 0 0 0 0 0 0 0 0 0 0 0 0 0 1 4 11 0 0 0 5 8 7 5
0 0 0 0 0 0 0 0 0 0 0 0 0 0 0 0 1 0 6 1 0 1 6 6 5 6 9
0 0 0 0 0 0 0 0 0 0 3 4 1 4 1 1 5 0 0 0 2 1 3 6 4 4 3
0 0 0 0 0 0 1 2 3 0 5 6 5 9 4 0 1 2 3 4 7 8 7 5 3 1 12
0 0 0 0 0 0 0 4 4 4 1 6 8 13 14 19 4 10 15 15 17 12 3 3 4 7 10
0 0 0 0 1 1 1 2 4 6 6 6 7 10 13 14 17 10 12 19 26 4 7 3 4 8 7
0 0 0 1 1 1 2 2 4 2 2 8 10 18 14 12 9 9 16 7 1 1 3 1 1 4 3
0 2 2 4 3 2 3 4 3 3 13 5 9 6 2 5 13 3 10 8 3 12 1 2 1 10 14
4 3 5 4 3 4 4 2 3 4 3 7 16 14 13 6 0 5 15 4 9 6 7 1 3 10 6
2 3 1 6 7 6 5 6 4 4 7 6 8 4 7 3 1 5 16 16 12 4 4 8 2 5 6
2 2 1 5 8 4 5 7 4 4 5 3 4 1 4 6 3 3 18 18 17 7 2 0 2 0 9